APK7194 DNMM-DNPO

Flight info

Callsign APK7194
Flight time 0h 45m
Altitude 25000
Route LAG UR984 POT
Aircraft B738/M-SDE2E3FGHIRWXY/LB1

Departure

Time 2026-04-22 22:57
Airport Murtala Muhammed International Airport (DNMM)

Arrival

Time 2026-04-22 23:42
Airport Port Harcourt International Airport (DNPO)
Time Latitude Longitude Altitude Speed Heading
2026-04-22 22:46 6.59169 3.33169 131 ft 0 kts 326°
2026-04-22 22:55 6.59178 3.33167 132 ft 3 kts 342°
2026-04-22 22:55 6.59165 3.33075 132 ft 13 kts 239°
2026-04-22 22:56 6.59126 3.32984 133 ft 16 kts 255°
2026-04-22 22:56 6.59065 3.32896 133 ft 18 kts 186°
2026-04-22 22:56 6.58771 3.32898 126 ft 77 kts 179°
2026-04-22 22:56 6.58013 3.32905 111 ft 142 kts 179°
2026-04-22 22:57 6.56854 3.32903 278 ft 180 kts 181°
2026-04-22 22:57 6.55620 3.32902 1145 ft 175 kts 178°
2026-04-22 22:57 6.54470 3.33376 1750 ft 198 kts 137°
2026-04-22 22:57 6.53847 3.34734 2000 ft 231 kts 97°
2026-04-22 22:58 6.53645 3.36387 2278 ft 253 kts 101°
2026-04-22 22:58 6.53268 3.38188 2677 ft 271 kts 104°
2026-04-22 22:58 6.52810 3.40026 3594 ft 270 kts 104°
2026-04-22 22:58 6.52316 3.41852 4476 ft 272 kts 104°
2026-04-22 22:59 6.51792 3.43687 5321 ft 275 kts 104°
2026-04-22 22:59 6.51247 3.45529 6207 ft 274 kts 104°
2026-04-22 22:59 6.50688 3.47371 7000 ft 276 kts 104°
2026-04-22 22:59 6.50116 3.49225 7791 ft 278 kts 105°
2026-04-22 23:00 6.49535 3.51081 8611 ft 279 kts 105°
2026-04-22 23:00 6.48949 3.52942 9407 ft 281 kts 105°
2026-04-22 23:00 6.48354 3.54817 10158 ft 283 kts 105°
2026-04-22 23:00 6.47735 3.56771 10427 ft 305 kts 105°
2026-04-22 23:01 6.47068 3.58872 10597 ft 327 kts 105°
2026-04-22 23:01 6.46357 3.61099 10925 ft 340 kts 106°
2026-04-22 23:01 6.45626 3.63378 11525 ft 344 kts 106°
2026-04-22 23:01 6.44889 3.65671 12218 ft 345 kts 106°
2026-04-22 23:02 6.44148 3.67977 12890 ft 348 kts 107°
2026-04-22 23:02 6.43401 3.70300 13538 ft 350 kts 107°
2026-04-22 23:02 6.42649 3.72637 14118 ft 353 kts 107°
2026-04-22 23:02 6.41889 3.75002 14633 ft 358 kts 107°
2026-04-22 23:03 6.41119 3.77399 15137 ft 362 kts 107°
2026-04-22 23:03 6.40341 3.79821 15649 ft 367 kts 107°
2026-04-22 23:03 6.39552 3.82275 16154 ft 371 kts 107°
2026-04-22 23:03 6.38754 3.84755 16658 ft 375 kts 107°
2026-04-22 23:04 6.37949 3.87261 17141 ft 379 kts 107°
2026-04-22 23:04 6.37132 3.89800 17615 ft 383 kts 107°
2026-04-22 23:04 6.36307 3.92363 18099 ft 387 kts 107°
2026-04-22 23:04 6.35475 3.94950 18510 ft 391 kts 107°
2026-04-22 23:05 6.34634 3.97563 18935 ft 394 kts 107°
2026-04-22 23:05 6.33789 4.00190 19358 ft 397 kts 107°
2026-04-22 23:05 6.32934 4.02845 19773 ft 400 kts 107°
2026-04-22 23:05 6.32075 4.05516 20195 ft 403 kts 107°
2026-04-22 23:06 6.31210 4.08200 20602 ft 406 kts 107°
2026-04-22 23:06 6.30334 4.10920 20963 ft 410 kts 107°
2026-04-22 23:06 6.29455 4.13651 21358 ft 413 kts 107°
2026-04-22 23:06 6.28577 4.16374 21729 ft 416 kts 107°
2026-04-22 23:07 6.27673 4.19180 22186 ft 417 kts 107°
2026-04-22 23:07 6.26793 4.21912 22729 ft 416 kts 107°
2026-04-22 23:07 6.25902 4.24675 23229 ft 416 kts 107°
2026-04-22 23:07 6.25007 4.27451 23654 ft 417 kts 107°
2026-04-22 23:08 6.24111 4.30224 24060 ft 418 kts 108°
2026-04-22 23:08 6.23020 4.32926 24486 ft 418 kts 114°
2026-04-22 23:08 6.21776 4.35561 24852 ft 419 kts 115°
2026-04-22 23:08 6.20502 4.38192 24865 ft 417 kts 115°
2026-04-22 23:09 6.19229 4.40809 24884 ft 417 kts 115°
2026-04-22 23:09 6.17959 4.43430 24893 ft 417 kts 115°
2026-04-22 23:09 6.16694 4.46058 24895 ft 418 kts 114°
2026-04-22 23:09 6.15434 4.48689 24896 ft 418 kts 114°
2026-04-22 23:10 6.14176 4.51324 24894 ft 418 kts 114°
2026-04-22 23:10 6.12919 4.53962 24891 ft 418 kts 114°
2026-04-22 23:10 6.11665 4.56594 24893 ft 418 kts 114°
2026-04-22 23:10 6.10410 4.59231 24890 ft 418 kts 114°
2026-04-22 23:11 6.09155 4.61866 24884 ft 418 kts 114°
2026-04-22 23:11 6.07903 4.64496 24885 ft 417 kts 114°
2026-04-22 23:11 6.06649 4.67127 24884 ft 417 kts 114°
2026-04-22 23:11 6.05398 4.69753 24884 ft 416 kts 114°
2026-04-22 23:12 6.04149 4.72373 24885 ft 416 kts 114°
2026-04-22 23:12 6.02903 4.74987 24885 ft 415 kts 114°
2026-04-22 23:12 6.01656 4.77602 24884 ft 415 kts 114°
2026-04-22 23:12 6.00415 4.80205 24882 ft 415 kts 114°
2026-04-22 23:13 5.99169 4.82817 24886 ft 414 kts 114°
2026-04-22 23:13 5.97945 4.85385 24885 ft 414 kts 114°
2026-04-22 23:13 5.96698 4.87999 24885 ft 414 kts 114°
2026-04-22 23:13 5.95479 4.90553 24886 ft 414 kts 114°
2026-04-22 23:14 5.94230 4.93173 24884 ft 414 kts 115°
2026-04-22 23:14 5.92967 4.95820 24887 ft 414 kts 115°
2026-04-22 23:14 5.91743 4.98384 24885 ft 414 kts 115°
2026-04-22 23:14 5.90501 5.00985 24884 ft 414 kts 115°
2026-04-22 23:15 5.89250 5.03603 24885 ft 414 kts 115°
2026-04-22 23:15 5.87981 5.06251 24881 ft 414 kts 115°
2026-04-22 23:15 5.86737 5.08845 24883 ft 414 kts 115°
2026-04-22 23:15 5.85485 5.11455 24882 ft 414 kts 115°
2026-04-22 23:16 5.84238 5.14056 24882 ft 414 kts 115°
2026-04-22 23:16 5.82987 5.16663 24880 ft 414 kts 115°
2026-04-22 23:16 5.81738 5.19267 24884 ft 414 kts 115°
2026-04-22 23:16 5.80504 5.21841 24883 ft 414 kts 115°
2026-04-22 23:17 5.79238 5.24480 24881 ft 414 kts 115°
2026-04-22 23:17 5.77990 5.27081 24880 ft 414 kts 115°
2026-04-22 23:17 5.76738 5.29691 24884 ft 414 kts 115°
2026-04-22 23:17 5.75488 5.32296 24883 ft 414 kts 115°
2026-04-22 23:18 5.74243 5.34892 24883 ft 414 kts 115°
2026-04-22 23:18 5.72988 5.37506 24882 ft 414 kts 115°
2026-04-22 23:18 5.71740 5.40106 24880 ft 414 kts 115°
2026-04-22 23:18 5.70491 5.42709 24881 ft 414 kts 115°
2026-04-22 23:19 5.69245 5.45304 24881 ft 414 kts 115°
2026-04-22 23:19 5.67991 5.47916 24882 ft 413 kts 115°
2026-04-22 23:19 5.66758 5.50481 24865 ft 402 kts 115°
2026-04-22 23:19 5.65562 5.52970 24864 ft 391 kts 115°
2026-04-22 23:20 5.64383 5.55424 24870 ft 389 kts 115°
2026-04-22 23:20 5.63206 5.57873 24883 ft 391 kts 115°
2026-04-22 23:20 5.62021 5.60341 24619 ft 393 kts 115°
2026-04-22 23:20 5.60840 5.62800 24322 ft 389 kts 115°
2026-04-22 23:21 5.59666 5.65243 23955 ft 388 kts 115°
2026-04-22 23:21 5.58498 5.67673 23575 ft 386 kts 115°
2026-04-22 23:21 5.57335 5.70092 23126 ft 384 kts 115°
2026-04-22 23:21 5.56174 5.72506 22703 ft 382 kts 115°
2026-04-22 23:22 5.55025 5.74896 22294 ft 379 kts 115°
2026-04-22 23:22 5.53882 5.77272 21894 ft 376 kts 115°
2026-04-22 23:22 5.52763 5.79599 21509 ft 374 kts 115°
2026-04-22 23:22 5.51622 5.81970 21116 ft 371 kts 115°
2026-04-22 23:23 5.50505 5.84292 20735 ft 369 kts 115°
2026-04-22 23:23 5.49424 5.86540 20367 ft 366 kts 115°
2026-04-22 23:23 5.48306 5.88864 19984 ft 364 kts 115°
2026-04-22 23:23 5.47211 5.91139 19617 ft 362 kts 115°
2026-04-22 23:24 5.46133 5.93379 19240 ft 360 kts 115°
2026-04-22 23:24 5.45042 5.95644 18863 ft 359 kts 115°
2026-04-22 23:24 5.43948 5.97918 18480 ft 357 kts 115°
2026-04-22 23:24 5.42867 6.00163 18087 ft 356 kts 115°
2026-04-22 23:25 5.41811 6.02356 17677 ft 354 kts 115°
2026-04-22 23:25 5.40751 6.04558 17289 ft 351 kts 115°
2026-04-22 23:25 5.39694 6.06753 16911 ft 348 kts 115°
2026-04-22 23:25 5.38629 6.08964 16539 ft 346 kts 115°
2026-04-22 23:26 5.37575 6.11152 16173 ft 343 kts 115°
2026-04-22 23:26 5.36534 6.13314 15811 ft 340 kts 115°
2026-04-22 23:26 5.35532 6.15394 15455 ft 338 kts 115°
2026-04-22 23:26 5.34526 6.17481 15107 ft 336 kts 114°
2026-04-22 23:27 5.33596 6.19619 14874 ft 329 kts 111°
2026-04-22 23:27 5.32737 6.21792 14534 ft 327 kts 110°
2026-04-22 23:27 5.31917 6.23924 14203 ft 325 kts 110°
2026-04-22 23:27 5.31123 6.25989 13872 ft 323 kts 110°
2026-04-22 23:28 5.30310 6.28092 13494 ft 322 kts 110°
2026-04-22 23:28 5.29509 6.30152 13123 ft 321 kts 109°
2026-04-22 23:28 5.28684 6.32263 12757 ft 319 kts 109°
2026-04-22 23:28 5.27874 6.34331 12402 ft 317 kts 109°
2026-04-22 23:29 5.27068 6.36384 12053 ft 315 kts 109°
2026-04-22 23:29 5.26281 6.38386 11707 ft 313 kts 109°
2026-04-22 23:29 5.25482 6.40420 11365 ft 311 kts 109°
2026-04-22 23:29 5.24676 6.42470 11023 ft 310 kts 109°
2026-04-22 23:30 5.23887 6.44477 10684 ft 309 kts 108°
2026-04-22 23:30 5.23101 6.46475 10347 ft 307 kts 108°
2026-04-22 23:30 5.22325 6.48445 10200 ft 299 kts 108°
2026-04-22 23:30 5.21573 6.50357 10055 ft 291 kts 108°
2026-04-22 23:31 5.20840 6.52218 9932 ft 283 kts 108°
2026-04-22 23:31 5.20122 6.54044 9672 ft 281 kts 108°
2026-04-22 23:31 5.19408 6.55861 9375 ft 279 kts 108°
2026-04-22 23:31 5.18696 6.57669 9081 ft 278 kts 108°
2026-04-22 23:32 5.18087 6.59487 8774 ft 273 kts 95°
2026-04-22 23:32 5.18075 6.61368 8511 ft 268 kts 84°
2026-04-22 23:32 5.18200 6.63226 8208 ft 267 kts 84°
2026-04-22 23:32 5.18336 6.65084 7932 ft 266 kts 84°
2026-04-22 23:33 5.18470 6.66931 7646 ft 266 kts 84°
2026-04-22 23:33 5.18599 6.68753 7365 ft 265 kts 84°
2026-04-22 23:33 5.18726 6.70581 7086 ft 265 kts 84°
2026-04-22 23:33 5.18852 6.72426 6795 ft 265 kts 84°
2026-04-22 23:34 5.18977 6.74272 6500 ft 266 kts 84°
2026-04-22 23:34 5.19060 6.75522 6307 ft 266 kts 84°
2026-04-22 23:34 5.19219 6.77914 5914 ft 266 kts 84°
2026-04-22 23:34 5.19303 6.79172 5715 ft 266 kts 84°
2026-04-22 23:35 5.19465 6.81622 5329 ft 266 kts 85°
2026-04-22 23:35 5.19546 6.82857 5198 ft 263 kts 85°
2026-04-22 23:35 5.19667 6.84691 4954 ft 261 kts 85°
2026-04-22 23:35 5.19785 6.86491 4701 ft 261 kts 85°
2026-04-22 23:36 5.19902 6.88266 4430 ft 260 kts 85°
2026-04-22 23:36 5.20022 6.90083 4152 ft 260 kts 85°
2026-04-22 23:36 5.20141 6.91892 3885 ft 259 kts 85°
2026-04-22 23:36 5.20259 6.93694 3656 ft 258 kts 86°
2026-04-22 23:37 5.20266 6.95467 3518 ft 251 kts 103°
2026-04-22 23:37 5.19619 6.97053 3410 ft 243 kts 118°
2026-04-22 23:37 5.18823 6.98517 3291 ft 236 kts 119°
2026-04-22 23:37 5.18055 6.99925 3221 ft 224 kts 119°
2026-04-22 23:38 5.17259 7.01221 3020 ft 215 kts 135°
2026-04-22 23:38 5.15984 7.01823 2800 ft 197 kts 182°
2026-04-22 23:38 5.14698 7.01586 2596 ft 182 kts 197°
2026-04-22 23:38 5.13548 7.01203 2413 ft 165 kts 204°
2026-04-22 23:39 5.12511 7.00792 2181 ft 156 kts 206°
2026-04-22 23:39 5.11539 7.00328 1983 ft 155 kts 210°
2026-04-22 23:39 5.10581 6.99823 1794 ft 156 kts 211°
2026-04-22 23:39 5.09626 6.99309 1592 ft 156 kts 211°
2026-04-22 23:40 5.08678 6.98798 1393 ft 154 kts 210°
2026-04-22 23:40 5.07733 6.98287 1204 ft 156 kts 210°
2026-04-22 23:40 5.06759 6.97764 1025 ft 161 kts 207°
2026-04-22 23:40 5.05764 6.97221 792 ft 164 kts 209°
2026-04-22 23:41 5.04765 6.96681 536 ft 162 kts 208°
2026-04-22 23:41 5.03788 6.96165 360 ft 158 kts 207°
2026-04-22 23:41 5.02832 6.95653 128 ft 155 kts 207°
2026-04-22 23:41 5.01914 6.95159 78 ft 132 kts 208°
2026-04-22 23:42 5.01293 6.94824 70 ft 69 kts 207°
2026-04-22 23:42 5.01084 6.94718 73 ft 18 kts 198°
2026-04-22 23:42 5.00962 6.94710 70 ft 17 kts 182°
2026-04-22 23:42 5.00849 6.94726 70 ft 10 kts 144°
2026-04-22 23:43 5.00845 6.94729 69 ft 0 kts 140°
2026-04-22 23:44 5.00832 6.94744 70 ft 5 kts 123°
2026-04-22 23:44 5.00821 6.94801 71 ft 12 kts 89°
2026-04-22 23:44 5.00793 6.94882 73 ft 13 kts 117°
2026-04-22 23:44 5.00750 6.94905 72 ft 7 kts 204°
2026-04-22 23:45 5.00736 6.94897 71 ft 0 kts 207°